Wind_Speed
2 3 4 4 4 4 3 3 2 3 2 3 4 4 5 6 7 6 7 8 8 8 8 8 8 9 9 9 9 10 10 10 11 11 11 11 11 11 10 10 9 9 9 8 8 8 8 7 7
2 2 3 3 4 3 1 2 1 1 2 2 3 3 4 5 5 6 6 7 7 7 8 8 8 8 8 9 9 9 9 10 10 10 10 10 10 10 9 9 8 8 7 7 7 7 7 6 7
1 1 2 2 2 1 1 1 0 1 1 1 2 2 3 4 4 4 5 6 7 7 7 7 7 8 8 8 9 9 9 9 9 9 9 10 9 9 9 8 8 7 7 7 7 6 6 6 6
1 1 1 2 1 0 1 1 0 1 1 1 1 1 2 3 3 3 4 5 6 7 7 7 7 7 8 9 9 9 9 9 9 9 9 9 8 8 8 8 7 6 6 6 5 5 5 4 5
3 2 0 0 1 1 1 1 1 0 1 1 1 0 1 1 1 2 3 4 6 7 7 7 7 7 7 8 9 8 8 8 8 8 8 8 8 7 7 7 6 5 5 4 4 3 3 3 3
4 3 2 2 2 2 2 2 2 1 1 1 2 2 1 1 0 2 2 4 6 7 7 7 7 7 7 8 8 8 7 8 8 8 7 7 7 6 6 6 5 5 4 4 3 3 2 2 1
5 4 4 4 4 4 3 3 3 3 2 3 3 3 3 2 1 2 3 4 6 6 7 7 7 7 7 8 8 8 8 7 8 7 7 7 6 6 6 6 5 5 4 3 3 2 2 1 1
7 6 6 6 5 5 5 4 4 4 4 4 3 4 4 3 2 2 3 4 5 6 7 7 7 7 7 8 8 8 7 8 8 7 7 6 6 7 6 6 5 5 4 3 3 2 1 1 1
9 8 8 8 7 6 6 5 5 4 4 4 4 4 4 3 3 4 4 5 6 6 7 8 8 8 8 8 8 8 8 8 8 8 7 7 6 6 7 6 6 5 4 4 3 2 2 1 1
11 10 11 10 8 7 7 6 6 6 6 5 5 5 4 4 4 4 5 6 7 7 8 8 8 9 9 9 8 8 8 8 8 8 8 7 7 6 6 6 6 5 4 4 3 3 2 2 2
13 13 12 11 9 8 8 7 7 6 6 5 5 6 5 5 4 5 5 7 7 8 8 9 9 9 10 9 9 9 8 8 8 8 8 8 7 7 7 6 6 5 5 4 4 3 3 3 3
15 15 14 13 11 9 8 8 7 7 7 7 6 6 6 6 5 5 5 7 8 9 9 10 10 9 10 10 9 8 8 8 8 8 8 8 8 8 8 7 6 6 5 5 5 4 4 4 4
16 15 15 14 13 11 10 9 9 8 8 8 7 7 7 6 6 6 6 7 8 10 11 11 10 10 11 11 10 9 9 8 9 9 9 9 8 8 8 8 7 6 6 5 5 5 5 5 5
16 16 15 15 14 13 11 10 10 9 9 9 9 9 8 7 7 7 7 8 9 10 11 12 11 11 12 12 11 10 10 9 9 9 9 9 9 9 9 9 7 7 6 6 5 5 5 5 5
17 17 17 16 16 14 12 12 11 10 10 10 9 9 9 9 8 8 9 10 10 11 12 13 13 13 13 13 12 12 11 10 10 10 10 9 9 9 9 9 9 8 7 7 6 6 5 5 5
17 17 17 17 16 15 13 12 12 11 10 10 10 10 10 10 9 9 9 10 11 12 13 13 13 14 14 14 14 14 13 12 11 11 11 10 10 10 9 10 10 9 8 8 7 7 6 6 5
18 18 18 18 17 16 14 14 14 12 11 10 10 10 10 10 11 11 10 11 11 12 13 14 14 15 15 15 15 15 14 13 12 12 12 11 11 10 10 10 10 9 9 9 9 8 8 7 6
18 18 19 19 18 16 15 14 14 13 12 11 11 11 10 11 12 12 12 12 12 13 13 14 15 14 14 14 15 14 14 14 13 13 12 12 12 12 12 11 10 10 10 10 10 9 9 8 8
20 19 19 20 18 16 15 15 14 13 13 12 12 12 11 11 12 12 12 13 13 14 14 14 14 14 15 15 15 15 15 14 14 14 14 13 13 13 12 12 11 10 10 11 10 10 9 9 8
21 20 20 20 18 17 16 15 14 13 12 12 12 12 12 12 13 12 12 12 13 13 14 15 15 15 16 16 15 14 14 15 15 14 14 14 13 13 12 12 11 10 10 11 11 10 9 9 9
21 21 21 20 18 17 16 15 15 14 13 12 12 12 12 12 13 13 13 13 12 12 13 15 15 15 15 16 15 14 13 13 13 13 14 14 14 13 13 13 12 11 11 11 11 10 10 9 9
22 22 22 20 18 17 16 14 16 15 14 13 12 12 12 12 13 13 14 13 13 13 13 14 15 14 14 15 15 13 12 13 12 13 14 14 13 13 13 13 13 12 12 11 11 11 11 10 10
23 23 22 20 19 18 16 15 16 15 14 13 13 13 13 13 12 13 14 14 14 13 13 13 15 15 14 14 15 14 13 13 13 13 14 13 13 13 13 13 13 12 12 11 11 11 12 11 11
25 23 22 21 19 19 18 17 16 17 15 14 14 14 14 13 13 13 14 14 14 14 13 13 13 14 15 15 15 15 14 14 13 13 14 14 13 13 13 14 14 13 13 12 11 11 11 12 11
26 24 22 20 20 19 19 18 17 17 16 16 16 15 14 13 13 13 13 13 13 13 13 14 14 15 15 16 16 16 15 15 14 14 15 15 14 13 13 14 13 13 13 13 12 11 11 11 11
24 24 22 19 18 19 20 18 17 17 16 16 16 15 15 14 14 14 14 14 14 14 14 14 14 15 16 16 16 16 16 16 15 14 15 15 15 15 14 14 14 13 13 12 12 12 11 11 11
25 25 23 21 19 17 18 18 17 17 17 16 16 16 15 15 14 14 15 15 15 15 15 15 15 15 15 16 17 17 17 16 16 15 14 15 15 15 15 15 14 14 13 12 12 12 11 12 12
26 24 24 22 20 17 17 17 16 16 16 16 16 16 16 15 14 14 14 15 15 15 15 16 16 15 16 16 16 17 17 17 16 16 15 16 16 16 16 15 14 14 13 13 13 12 12 12 12
27 26 24 22 21 17 14 15 16 15 15 15 15 16 16 15 15 14 15 15 16 15 15 15 15 15 14 15 16 16 17 16 16 15 15 16 16 16 16 16 15 14 14 14 14 13 13 13 13
27 25 24 23 22 19 15 15 16 15 15 15 15 15 15 15 15 15 15 14 15 15 14 14 15 15 14 14 15 16 16 16 15 16 16 16 16 16 16 16 15 15 15 15 15 14 14 14 14
Wind_Direction
46 54 55 57 58 63 72 64 76 62 77 84 88 91 93 96 105 104 108 110 109 113 115 115 119 122 124 127 125 122 121 121 120 118 117 116 118 117 115 112 110 111 108 103 102 103 103 100 98
28 45 53 56 67 82 66 66 79 73 83 82 79 86 99 102 106 108 114 114 117 119 122 125 125 128 131 133 131 127 124 123 121 121 122 122 120 118 117 116 114 112 109 105 102 103 105 100 98
338 18 42 43 61 156 234 57 63 114 87 82 72 86 99 103 105 114 119 125 128 128 129 133 135 137 141 141 139 135 132 129 124 125 126 125 123 122 122 119 117 115 111 107 106 105 101 100 101
285 307 8 40 47 278 220 258 245 132 85 49 36 82 99 100 103 114 133 142 144 140 140 139 141 144 150 151 147 140 138 133 128 125 129 131 130 127 125 125 122 118 115 111 110 111 107 103 102
257 269 306 78 255 289 257 275 281 310 26 351 3 45 82 85 100 125 152 165 163 153 151 151 154 155 157 159 157 151 142 135 135 134 135 138 137 135 135 132 129 126 125 120 119 126 122 113 104
239 248 237 227 250 261 276 281 277 275 300 310 326 317 337 349 90 163 169 172 169 167 163 164 168 169 170 170 168 164 155 147 145 145 146 148 149 147 148 147 142 138 137 135 135 137 139 132 125
232 236 234 234 250 258 268 274 285 283 289 296 305 300 311 298 253 190 182 183 178 180 180 178 178 179 178 178 175 172 167 163 157 156 159 158 158 160 161 163 159 156 154 148 145 147 146 151 149
234 235 240 248 252 255 260 268 279 283 283 289 291 297 302 282 245 217 206 194 188 190 192 191 191 188 185 185 182 178 179 176 170 167 167 170 170 169 169 171 174 175 175 171 168 165 159 179 171
234 233 238 245 246 252 260 262 269 279 276 275 274 286 295 277 243 226 216 207 198 197 201 203 203 200 198 194 190 187 186 183 180 179 178 179 179 175 174 177 182 189 192 188 189 194 206 210 212
234 232 237 243 246 252 260 260 263 268 270 273 275 279 285 271 248 229 226 215 209 205 205 207 207 208 206 202 199 196 194 191 190 190 190 189 190 188 185 186 190 196 201 202 206 215 221 231 233
235 233 238 242 247 251 256 260 261 261 265 271 278 284 282 271 260 240 230 222 216 211 208 209 210 213 208 208 205 204 201 198 199 199 197 199 200 199 199 194 199 200 205 209 217 219 225 236 243
236 236 237 240 245 247 251 257 257 257 259 267 279 291 290 273 263 248 231 224 222 218 214 213 212 213 210 207 207 209 208 205 206 207 208 208 206 206 207 205 204 206 210 214 223 229 236 246 256
236 236 237 240 244 245 250 253 255 257 262 272 279 283 288 277 267 256 241 231 225 222 220 217 218 220 217 211 210 214 215 215 214 213 212 211 211 212 212 208 210 211 214 216 225 236 239 246 260
235 235 236 239 243 248 251 252 254 257 264 272 275 277 279 274 271 261 247 237 232 228 225 224 224 224 223 220 217 216 217 221 222 218 217 220 218 217 218 216 214 215 216 218 226 232 238 245 254
234 234 236 238 241 245 250 252 255 256 262 269 272 274 274 271 271 263 251 244 239 234 232 232 230 229 227 224 221 219 220 224 226 223 223 227 225 221 221 220 217 218 222 224 229 233 239 246 251
233 234 236 238 241 245 248 251 253 255 261 267 270 273 271 268 269 265 259 251 248 240 237 238 235 234 232 227 225 225 226 227 231 229 228 229 226 222 222 223 221 222 226 229 234 236 244 251 252
231 232 234 239 240 244 246 246 251 253 257 263 269 270 268 266 267 266 263 257 253 247 243 241 239 238 235 231 231 229 229 230 234 231 226 227 224 224 227 226 225 226 228 232 233 237 242 244 247
229 228 231 237 239 242 245 245 249 252 257 262 268 267 266 264 263 263 261 257 252 249 248 244 240 237 235 232 232 228 226 229 234 231 228 228 226 228 230 230 231 233 234 234 234 238 239 241 247
224 224 228 233 238 241 242 243 248 252 256 263 265 266 264 263 261 260 257 256 255 251 248 245 239 236 236 234 233 232 231 233 234 232 231 230 229 229 230 232 233 235 236 233 234 235 237 242 248
221 222 227 234 236 237 239 242 246 249 256 262 263 262 261 260 259 258 256 257 254 251 246 241 238 238 237 234 233 236 237 237 235 234 234 233 230 230 231 230 234 237 237 234 234 234 238 242 248
219 220 225 231 234 235 237 243 248 248 254 259 259 260 260 260 260 259 255 254 252 253 246 239 238 239 237 235 236 237 239 235 234 235 235 235 232 233 233 231 233 237 236 235 235 236 239 242 247
219 220 223 228 229 235 235 237 248 250 255 259 256 254 258 261 260 259 255 251 250 251 250 241 237 237 234 231 233 235 239 238 237 234 234 234 235 234 233 233 235 238 237 236 235 237 239 243 247
217 220 222 226 228 233 239 235 245 251 253 255 255 255 260 263 260 257 255 253 252 252 250 246 238 234 234 235 234 236 238 240 239 236 234 234 236 236 235 235 235 236 237 237 239 240 243 245 246
217 219 223 227 231 236 240 241 243 250 250 252 255 257 261 262 258 256 255 251 252 253 251 246 241 236 237 238 238 240 241 242 238 235 234 235 237 237 235 235 235 239 238 236 240 241 243 245 247
216 216 221 228 233 236 240 242 244 247 248 250 255 257 259 260 256 256 254 250 249 249 248 245 242 240 240 241 241 241 242 243 240 238 239 237 237 238 238 237 238 240 239 238 240 241 243 245 246
217 216 217 224 235 238 245 245 248 250 247 248 253 257 259 258 255 254 251 248 247 246 245 243 242 241 240 241 242 241 242 244 242 243 241 238 239 240 239 237 237 236 237 238 241 243 244 244 244
217 215 217 223 228 234 246 247 249 249 249 248 252 255 257 256 252 251 251 248 247 248 246 245 243 243 241 240 243 241 241 243 242 243 242 240 240 240 239 236 235 235 237 239 240 243 246 244 243
215 217 218 219 224 231 246 250 248 248 250 250 251 253 253 254 252 253 251 248 249 249 247 249 246 243 243 242 244 239 240 241 241 242 243 242 240 240 238 235 233 234 238 241 240 242 245 246 244
218 218 220 223 226 228 244 251 247 249 250 250 252 254 253 252 250 249 251 248 247 247 247 244 243 244 242 242 242 235 235 238 240 240 242 243 242 240 236 234 236 238 241 243 243 243 244 245 245
221 222 223 225 230 229 233 250 250 248 249 250 253 255 254 253 248 248 250 248 244 242 243 242 241 242 241 243 239 234 235 238 243 243 243 244 242 240 238 236 238 240 243 243 243 243 246 247 248
Height
5885 5886 5886 5887 5888 5889 5889 5889 5888 5887 5887 5886 5886 5886 5886 5886 5887 5889 5887 5885 5886 5887 5887 5888 5888 5889 5890 5890 5891 5891 5891 5892 5892 5892 5893 5893 5894 5894 5895 5896 5896 5897 5897 5898 5898 5898 5898 5899 5899
5885 5885 5887 5887 5888 5889 5889 5888 5888 5887 5887 5886 5886 5886 5886 5886 5886 5886 5886 5886 5887 5887 5887 5888 5889 5890 5890 5891 5891 5892 5892 5892 5893 5893 5893 5894 5895 5895 5896 5897 5897 5898 5898 5899 5899 5899 5899 5900 5900
5884 5885 5887 5887 5888 5888 5888 5888 5887 5887 5887 5886 5886 5886 5886 5886 5885 5885 5886 5886 5887 5887 5888 5889 5889 5890 5891 5891 5892 5892 5893 5893 5893 5894 5894 5895 5895 5896 5897 5898 5898 5899 5899 5900 5900 5900 5900 5901 5901
5884 5885 5886 5887 5887 5887 5887 5887 5887 5886 5886 5886 5886 5886 5886 5886 5885 5885 5885 5886 5886 5887 5888 5889 5890 5890 5891 5892 5892 5893 5893 5894 5894 5894 5895 5895 5896 5897 5898 5899 5899 5900 5900 5900 5901 5901 5901 5901 5902
5883 5884 5886 5886 5886 5886 5886 5886 5886 5886 5886 5886 5886 5886 5885 5885 5885 5885 5885 5886 5886 5887 5888 5889 5890 5891 5892 5892 5893 5893 5893 5894 5894 5895 5895 5896 5897 5897 5898 5899 5900 5900 5901 5901 5901 5902 5902 5902 5902
5882 5884 5885 5886 5886 5885 5885 5885 5886 5886 5886 5886 5886 5885 5885 5885 5885 5885 5885 5885 5886 5887 5887 5888 5890 5891 5891 5892 5893 5893 5894 5894 5895 5895 5896 5897 5897 5898 5899 5899 5900 5900 5901 5901 5901 5902 5902 5902 5902
5882 5883 5884 5885 5885 5885 5885 5885 5885 5885 5885 5885 5885 5885 5884 5884 5884 5884 5884 5885 5886 5886 5887 5888 5889 5890 5891 5892 5892 5893 5893 5894 5895 5895 5896 5897 5897 5898 5898 5899 5900 5900 5901 5901 5902 5902 5902 5902 5902
5879 5882 5882 5883 5884 5884 5884 5884 5884 5884 5884 5884 5884 5884 5883 5883 5883 5883 5884 5884 5885 5886 5887 5888 5889 5890 5890 5891 5892 5892 5893 5894 5894 5895 5896 5896 5897 5897 5898 5899 5900 5900 5901 5901 5901 5902 5902 5902 5902
5877 5881 5881 5882 5882 5882 5882 5883 5883 5883 5883 5883 5883 5883 5883 5882 5882 5882 5883 5883 5884 5885 5886 5887 5888 5889 5890 5890 5891 5892 5892 5893 5894 5895 5895 5896 5896 5897 5898 5899 5899 5900 5900 5901 5901 5902 5902 5902 5902
5876 5878 5879 5879 5880 5881 5881 5881 5881 5882 5882 5882 5882 5881 5881 5881 5881 5881 5881 5882 5883 5884 5885 5887 5888 5888 5889 5890 5890 5891 5892 5892 5893 5894 5895 5895 5896 5896 5897 5898 5899 5899 5900 5900 5901 5901 5901 5901 5902
5873 5875 5876 5877 5878 5878 5879 5879 5880 5880 5880 5881 5881 5880 5880 5879 5879 5879 5880 5881 5881 5883 5884 5885 5886 5887 5888 5889 5889 5890 5891 5892 5892 5893 5894 5895 5895 5896 5896 5897 5898 5898 5899 5900 5900 5900 5901 5901 5901
5870 5872 5873 5874 5875 5877 5877 5878 5878 5879 5879 5879 5879 5879 5879 5878 5878 5878 5879 5879 5880 5882 5883 5884 5885 5886 5886 5887 5888 5889 5890 5891 5892 5892 5893 5894 5895 5895 5896 5897 5897 5898 5898 5899 5899 5900 5900 5900 5900
5867 5868 5870 5871 5873 5874 5875 5876 5876 5877 5877 5878 5878 5878 5878 5877 5877 5877 5877 5878 5879 5880 5881 5883 5884 5885 5885 5886 5887 5888 5889 5890 5891 5891 5892 5893 5893 5894 5895 5895 5896 5897 5898 5898 5899 5899 5899 5900 5900
5864 5865 5867 5868 5870 5872 5873 5874 5875 5875 5875 5876 5876 5876 5876 5876 5875 5875 5876 5877 5878 5879 5880 5881 5882 5883 5884 5885 5885 5886 5887 5888 5889 5890 5891 5891 5892 5893 5894 5895 5895 5896 5897 5897 5898 5898 5898 5899 5899
5860 5862 5864 5866 5867 5869 5871 5872 5873 5873 5873 5874 5874 5874 5874 5874 5874 5874 5873 5874 5875 5877 5878 5879 5880 5881 5882 5883 5884 5885 5885 5886 5887 5888 5889 5890 5891 5892 5893 5894 5894 5895 5896 5896 5897 5897 5897 5898 5898
5857 5859 5862 5863 5865 5866 5870 5870 5870 5870 5871 5871 5872 5871 5871 5871 5872 5872 5871 5872 5873 5874 5876 5877 5878 5879 5880 5881 5882 5883 5884 5885 5885 5886 5887 5888 5889 5890 5891 5892 5893 5894 5894 5895 5896 5896 5896 5897 5897
5854 5857 5859 5860 5862 5863 5866 5867 5867 5868 5868 5869 5869 5869 5869 5869 5869 5869 5870 5870 5871 5872 5873 5874 5875 5876 5877 5878 5880 5881 5882 5883 5883 5884 5885 5886 5887 5888 5889 5890 5891 5892 5893 5893 5894 5895 5895 5896 5896
5851 5854 5855 5857 5858 5860 5862 5864 5864 5865 5866 5866 5866 5867 5867 5867 5867 5867 5867 5867 5868 5869 5870 5871 5872 5873 5875 5876 5877 5878 5879 5880 5881 5882 5883 5884 5885 5886 5887 5889 5889 5890 5891 5892 5892 5893 5894 5894 5895
5846 5849 5852 5853 5854 5857 5859 5860 5861 5862 5863 5863 5864 5864 5864 5864 5864 5864 5864 5865 5865 5866 5867 5868 5869 5870 5872 5873 5874 5875 5876 5878 5878 5879 5880 5881 5883 5884 5885 5887 5888 5888 5889 5890 5891 5891 5892 5893 5893
5842 5845 5848 5849 5851 5854 5856 5857 5858 5859 5860 5860 5861 5861 5861 5861 5861 5861 5862 5862 5862 5863 5863 5865 5866 5867 5869 5870 5871 5872 5873 5875 5876 5877 5878 5879 5880 5882 5883 5885 5886 5886 5887 5888 5889 5889 5890 5891 5892
5838 5842 5844 5846 5848 5850 5853 5855 5855 5856 5857 5857 5858 5858 5858 5858 5858 5858 5859 5859 5860 5860 5860 5862 5863 5864 5865 5867 5868 5870 5871 5872 5873 5874 5876 5877 5878 5879 5881 5882 5883 5884 5885 5886 5887 5888 5888 5889 5890
5834 5837 5839 5842 5845 5848 5850 5853 5853 5853 5854 5854 5855 5855 5855 5855 5855 5855 5856 5856 5857 5858 5858 5859 5860 5861 5863 5864 5866 5867 5868 5870 5871 5872 5873 5874 5876 5877 5878 5880 5881 5882 5883 5884 5885 5886 5887 5887 5888
5830 5832 5835 5838 5841 5844 5846 5849 5851 5850 5850 5851 5851 5852 5852 5852 5852 5852 5853 5854 5854 5855 5856 5856 5857 5859 5860 5862 5863 5865 5866 5867 5868 5870 5871 5872 5874 5875 5876 5877 5879 5880 5881 5882 5882 5883 5884 5885 5886
5824 5828 5831 5834 5838 5841 5843 5845 5847 5847 5847 5848 5848 5848 5848 5849 5849 5849 5850 5851 5851 5852 5853 5854 5855 5857 5858 5860 5861 5863 5864 5865 5866 5867 5869 5870 5871 5872 5873 5875 5876 5877 5879 5880 5881 5881 5882 5883 5884
5820 5825 5829 5832 5835 5838 5839 5840 5843 5843 5843 5844 5844 5845 5845 5845 5846 5846 5847 5847 5848 5849 5850 5851 5852 5854 5855 5857 5858 5860 5861 5862 5863 5864 5865 5867 5868 5869 5871 5872 5874 5875 5876 5877 5878 5879 5880 5881 5881
5816 5822 5827 5831 5833 5835 5834 5836 5838 5838 5839 5840 5840 5841 5841 5842 5842 5843 5843 5844 5845 5846 5847 5848 5849 5850 5852 5853 5855 5857 5858 5859 5860 5861 5863 5864 5865 5867 5868 5869 5871 5872 5873 5875 5876 5876 5877 5878 5879
5812 5816 5822 5826 5829 5831 5831 5832 5833 5834 5835 5836 5836 5837 5837 5838 5839 5839 5840 5841 5842 5842 5843 5845 5846 5847 5848 5850 5851 5853 5855 5856 5857 5859 5860 5861 5863 5864 5865 5866 5868 5869 5871 5872 5873 5874 5875 5876 5877
5808 5812 5816 5820 5823 5827 5828 5828 5830 5830 5830 5831 5832 5833 5833 5834 5835 5835 5836 5837 5838 5839 5840 5841 5842 5844 5845 5846 5848 5849 5851 5853 5854 5856 5857 5858 5860 5861 5862 5864 5865 5867 5868 5869 5870 5871 5872 5873 5874
5803 5807 5811 5816 5819 5824 5826 5828 5825 5826 5827 5827 5828 5828 5829 5830 5831 5831 5832 5833 5833 5835 5836 5837 5838 5840 5841 5843 5844 5846 5848 5850 5851 5853 5854 5855 5856 5858 5859 5861 5862 5863 5865 5866 5867 5868 5869 5870 5871
5799 5803 5807 5812 5814 5817 5822 5825 5821 5822 5822 5823 5824 5824 5825 5826 5826 5827 5828 5829 5829 5831 5832 5833 5835 5836 5838 5839 5841 5842 5844 5846 5848 5849 5850 5852 5853 5855 5856 5858 5859 5860 5862 5863 5864 5865 5866 5867 5868